Regional Weather Roundup
Issued by NWS Bismarck, ND

Home | Current Version | Previous Version | Text Only | Print | Product List | Glossary On
Versions: 1 2 3 4 5 6 7 8 9 10 11 12 13 14 15 16 17 18 19 20 21 22 23 24 25 26 27 28 29 30 31 32 33 34 35 36 37 38 39 40 41 42 43 44 45 46 47 48 49 50
000
ASUS43 KBIS 201059
RWRBIS

NWR BROADCAST TEXT
NATIONAL WEATHER SERVICE BISMARCK ND
600 AM CDT WED AUG 20 2014

NOTE: "FAIR" INDICATES FEW OR NO CLOUDS BELOW 12,000 FEET WITH NO
SIGNIFICANT WEATHER AND/OR OBSTRUCTIONS TO VISIBILITY.


CITY           SKY/WX    TMP DP  RH WIND       PRES   REMARKS
WILLISTON      CLOUDY    70  60  70 SE6       29.61F
MINOT          CLEAR     63  60  90 CALM      29.66F
MINOT AFB      NOT AVBL
BISMARCK       CLEAR     65  61  87 E9        29.70S
DICKINSON      NOT AVBL
GARRISON         N/A     65  63  93 SE6       29.68S
HETTINGER ARPT MOCLDY    68  62  81 SE8       29.70S
JAMESTOWN      NOT AVBL
BEACH            N/A     63  63 100 E6        29.66F
CARRINGTON     FAIR      63  63 100 SE9       29.75S
CROSBY         FAIR      66  64  94 S8        29.62S
HARVEY         FAIR      63  63 100 SE7       29.72S
HAZEN          FAIR      63  59  88 NE3       29.68S
LINTON         FAIR      61  61 100 E7        29.71R
MANDAN         FAIR      63  61  94 E7        29.71S
STANLEY        FAIR      63  63 100 SE6       29.66F
TIOGA          FAIR      63  63 100 SE8       29.67F
WATFORD CITY   FAIR      64  59  82 SE5       29.61F
$$

CITY           SKY/WX    TMP DP  RH WIND       PRES   REMARKS
GRAND FORKS    PTCLDY    63  61  93 SE7       29.76S
GRAND FORKS AF NOT AVBL
DEVILS LAKE    PTCLDY    68  61  77 SE9       29.74R
FARGO          PTCLDY    65  62  90 SE6       29.76F
CAVALIER       FAIR      61  59  94 SE3       29.77R
GRAFTON        FAIR      59  59 100 SE6       29.77R
GWINNER        SUNNY     63  63 100 E3        29.77S
LANGDON        FAIR      63  63 100 S7        29.77R
ROLLA          CLOUDY    59  59 100 S3        29.76S
$$

CITY           SKY/WX    TMP DP  RH WIND       PRES   REMARKS
ABERDEEN       PTCLDY    61  61 100 SE5       29.75R
MOBRIDGE       PTCLDY    64  63  96 E7        29.67F
RAPID CITY     CLOUDY    66  56  70 CALM      29.72R
GLASGOW        MOCLDY    66  53  63 NW9       29.60S
SIDNEY         CLOUDY    66  61  82 CALM      29.61F
WOLF POINT     CLOUDY    66  50  56 NE3       29.58S
GLENDIVE       CLOUDY    70  61  73 S9        29.63F
MILES CITY     CLOUDY    71  46  40 W8        29.64R
BAKER          CLOUDY    69  60  73 S7        29.69R
$$

CITY           SKY/WX    TMP DP  RH WIND       PRES   REMARKS
BILLINGS       CLOUDY    72  43  35 W14       29.76R
GREAT FALLS    PTCLDY    57  49  74 CALM      29.79R
$$



USA.gov is the U.S. government's official web portal to all federal, state and local government web resources and services.